Location: Bismarck
(46.7731°N, 100.8200°W)
Time: 15:56:53
(UTC-05:00)

Daily predictions for brighter satellites

Satellite Brightness Start Highest point End
(mag) Time Altitude Azimuth Time Altitude Azimuth Time Altitude Azimuth
Cosmos 1812 Rocket 3.5 20:29:33 10° S 20:33:56 73° E 20:38:19 10° NNE
Cosmos 2082 Rocket 2.8 20:29:07 10° NNW 20:34:31 41° NE 20:39:51 10° SE
Meteor 1-24 Rocket 3.8 20:29:05 10° N 20:34:36 88° ENE 20:40:17 10° S
FREGAT/IRIS 3.1 20:32:19 10° S 20:35:21 65° WSW 20:38:24 10° NNW
Lacrosse 5 2.0 20:32:03 10° SSW 20:37:01 58° SE 20:42:00 10° ENE
Cosmos 990 Rocket 4.0 20:33:23 10° SSW 20:38:38 77° ESE 20:43:53 10° NNE
USA 186 2.6 20:40:09 10° ESE 20:41:45 17° ENE 20:43:21 10° NNE
Cosmos 1953 3.3 20:38:21 10° SSE 20:41:48 27° E 20:45:16 10° NNE
Lacrosse 4 Rocket 2.2 20:37:51 10° SW 20:41:49 54° NW 20:45:49 10° NNE
Cosmos 2150 Rocket 4.2 20:38:33 10° SSW 20:43:41 76° WNW 20:48:53 10° NNE
GP-B 4.1 20:43:32 10° SE 20:47:15 27° ENE 20:51:00 10° NNE
Cosmos 1766 Rocket 4.4 20:43:21 10° N 20:47:22 31° ENE 20:51:22 10° SE
Cosmos 1898 Rocket 4.4 20:42:30 10° SW 20:47:43 56° WNW 20:52:55 10° NNE
Envisat 3.9 20:44:01 10° ESE 20:48:20 29° ENE 20:52:40 10° N
Cosmos 1821 Rocket 4.2 20:42:11 10° S 20:48:36 81° W 20:54:58 10° N
Cosmos 1939 Rocket 4.4 20:45:42 10° ESE 20:48:45 20° ENE 20:51:49 10° NNE
Helios 1A 3.6 20:44:58 10° SE 20:48:47 35° ENE 20:52:38 10° N
Cosmos 1271 Rocket 4.3 20:47:57 10° SE 20:50:35 17° E 20:53:16 10° NE
Cosmos 1766 3.2 20:49:07 10° S 20:53:00 89° W 20:56:55 10° N
Resurs 01 Rocket 1.6 20:49:02 10° SSE 20:53:27 80° ENE 20:57:53 10° NNW
USA 267 4.2 20:49:04 10° ENE 20:55:00 39° N 21:00:58 10° NW
Cosmos 1125 Rocket 3.9 20:51:27 10° S 20:56:15 39° ESE 21:01:05 10° NE
Cosmos 1048 Rocket 4.1 20:51:37 10° NNW 20:56:41 55° ENE 21:01:42 10° SE
Geosat 4.5 20:54:24 10° NE 20:59:03 37° ESE 21:03:41 10° S
Lacrosse 5 rocket 1.8 20:55:41 10° NW 20:59:33 43° NNE 21:02:25 15° E
Cosmos 1844 4.3 20:54:51 10° SW 21:00:35 63° WNW 21:06:22 10° NNE
Cosmos-2242 4.0 20:57:28 10° SE 21:00:58 25° E 21:04:29 10° NNE
Cosmos 1674 3.2 20:59:48 10° N 21:03:22 38° ENE 21:06:52 10° SE
HJ-1C 4.5 21:00:51 10° S 21:04:10 48° W 21:07:31 10° NNW
ERS-1 Rocket 4.2 21:03:22 14° ESE 21:06:25 24° ENE 21:10:25 10° N
Cosmos 1605 Rocket 4.0 21:00:23 10° S 21:06:39 80° E 21:13:03 10° N
SeaSat 1 3.5 21:05:16 10° S 21:10:00 47° WSW 21:14:47 10° NW
SAR-Lupe-4 3.6 21:06:34 10° SSE 21:10:06 61° ENE 21:13:40 10° N
YAOGAN 6 4.3 21:10:53 17° E 21:11:47 18° ENE 21:14:22 10° NNE
RESURS DK-1 4.5 21:10:08 10° NW 21:13:38 27° WSW 21:17:07 10° SSW
Meteor 1-29 3.6 21:15:15 10° NNE 21:18:28 34° E 21:21:40 10° SSE
Cosmos 1743 Rocket 4.4 21:14:53 10° N 21:18:52 32° ENE 21:21:02 21° ESE
CZ-2D R/B 3.5 21:16:08 10° S 21:19:59 70° WSW 21:23:53 10° NNW
COSMOS 2487 2.4 21:20:55 10° NNW 21:24:30 88° ENE 21:27:14 16° SSE
Cosmos 1805 3.4 21:21:01 10° SSW 21:24:54 75° W 21:28:50 10° N
Meteor 1-21 Rocket 4.3 21:19:11 10° N 21:25:03 88° E 21:30:57 10° S
SAR-Lupe-1 4.0 21:25:36 11° SSE 21:28:58 89° ENE 21:32:34 10° NNW
Cosmos 1818 4.2 21:24:38 10° NW 21:29:58 54° WSW 21:35:13 10° SSE
Cosmos 1802 Rocket 4.3 21:24:24 10° SSE 21:30:06 42° E 21:35:52 10° NNE
BREEZE-M DEB (TANK) 3.5 21:27:58 10° SW 21:31:07 65° SSE 21:40:45 10° ENE
Cosmos 2251 Rocket 4.2 21:26:49 10° N 21:31:47 38° ENE 21:34:11 25° ESE
ALOS 4.3 21:28:36 10° SSW 21:32:40 29° W 21:36:47 10° NNW
Meteor 1-4 Rocket 2.7 21:31:49 10° SSW 21:35:15 70° W 21:38:46 10° N
Cosmos 1269 Rocket 4.2 21:30:39 10° NNW 21:35:56 71° WSW 21:41:11 10° SSE
Cosmos 1408 Rocket 3.7 21:35:49 10° N 21:40:18 80° W 21:44:46 10° S
Cosmos 1470 2.7 21:37:02 10° S 21:40:59 63° E 21:44:55 10° NNE
Cosmos 1833 Rocket 2.8 21:37:07 10° NNW 21:42:44 74° WSW 21:47:24 15° SSE
Cosmos 2061 Rocket 4.1 21:37:25 10° S 21:43:41 59° E 21:50:00 10° NNE
Cosmos 1544 4.4 21:40:23 10° SSW 21:43:52 42° WNW 21:47:24 10° N
Timation 1 Rocket 4.4 21:39:36 10° SSW 21:45:38 83° WNW 21:51:42 10° NNE
Timation 2 Rocket 4.0 21:39:17 10° NNW 21:45:41 78° WSW 21:50:27 17° SSE
Cosmos 1340 Rocket 2.7 21:41:47 10° N 21:45:50 79° ENE 21:47:49 29° SSE
CZ-4B DEB 2.9 21:44:38 27° S 21:46:10 67° WSW 21:49:16 10° NNW
Cosmos 1733 3.1 21:45:50 10° S 21:49:38 75° E 21:53:32 10° NNE
Cosmos 2278 Rocket 3.4 21:46:04 10° SW 21:51:29 45° NW 21:56:57 10° NNE
ISS -1.4 21:50:39 10° SSW 21:51:09 13° SSW 21:51:09 13° SSW
Cosmos 372 Rocket 3.9 21:48:22 10° SSW 21:53:29 90° SSE 21:58:41 10° NNE
Cosmos 2058 3.9 21:50:33 10° N 21:53:54 30° ENE 21:53:54 30° ENE
Cosmos 2344 4.3 21:47:11 10° WSW 21:54:50 61° NW 22:03:58 10° NE
Cosmos 1842 Rocket 3.8 21:55:26 43° ESE 21:55:44 44° E 21:59:56 10° NNE
CZ-3B DEB 2.9 21:47:01 10° WSW 21:56:04 57° NNW 21:59:39 15° NE
Cosmos 2151 3.4 21:55:45 10° N 21:59:50 43° ENE 21:59:52 43° ENE
Cosmos 1459 Rocket 3.9 21:53:55 10° S 22:00:11 83° E 22:06:23 10° N
ATLAS 5 CENTAUR R/B 1.7 21:57:31 10° SSW 22:02:12 67° SE 22:07:21 10° NE
USA 215 3.3 21:56:52 10° ENE 22:03:12 50° SE 22:09:29 10° SSW
Cosmos 2173 Rocket 3.9 21:59:51 10° S 22:06:02 89° ESE 22:12:22 10° N
Helios 1B rocket 3.2 22:03:16 10° N 22:07:18 52° WNW 22:11:18 10° SSW
Cosmos 2297 4.0 22:01:37 10° SW 22:07:19 68° WNW 22:13:04 10° NNE
Cosmos 1867 3.7 22:02:57 10° SW 22:08:25 76° NW 22:13:55 10° NE
BREEZE-M DEB (TANK) 3.9 22:05:51 10° SW 22:09:56 53° SE 22:24:29 10° ENE
YAOGAN 11 4.2 22:10:19 53° E 22:10:46 56° ENE 22:15:15 10° N
SL-14 R/B 3.1 22:09:45 10° N 22:13:33 78° ENE 22:13:33 78° ENE
Cosmos 494 Rocket 3.8 22:10:58 10° NNW 22:16:08 83° ENE 22:17:23 52° SSE
Cosmos 1328 3.7 22:12:30 10° N 22:16:31 84° W 22:16:49 75° SSW
Meteor 1-11 4.1 22:11:43 10° N 22:17:19 74° ENE 22:18:55 47° SSE
Cosmos 2082 Rocket 3.5 22:13:24 10° NW 22:18:32 36° WSW 22:23:05 13° SSW
Lacrosse 5 3.0 22:15:24 10° W 22:20:12 41° NNW 22:24:38 12° NE
Cosmos 1939 Rocket 4.0 22:21:27 25° SSW 22:23:25 43° W 22:27:23 10° NNW
SPOT 5 3.1 22:24:17 57° ESE 22:24:57 62° ENE 22:30:13 10° N
Cosmos 1271 Rocket 4.0 22:22:29 10° SW 22:26:18 42° WNW 22:30:09 10° N
Envisat 4.1 22:23:11 14° SSW 22:27:11 41° W 22:32:00 10° NNW
Cosmos 1184 Rocket 3.9 22:25:28 10° NNW 22:28:25 44° WNW 22:28:25 44° WNW
Meteor 1-16 Rocket 4.2 22:26:07 25° S 22:29:44 85° E 22:35:42 10° NNE
Meteor 2-17 Rocket 4.4 22:24:05 11° S 22:30:00 85° W 22:36:11 10° N
MetOp-A 4.0 22:31:24 60° SSE 22:32:25 86° ENE 22:37:48 10° NNW
H-2A R/B 2.7 22:33:28 41° ENE 22:33:28 41° ENE 22:38:08 10° N
ARGOS 3.1 22:33:03 63° E 22:33:25 65° ENE 22:38:45 10° N
USA 267 3.3 22:35:30 46° E 22:37:27 67° NNE 22:43:56 10° NW
Cosmos 2016 Rocket 4.1 22:31:39 10° SSW 22:37:51 74° W 22:44:02 10° N
Lacrosse 5 rocket 2.6 22:35:11 10° WNW 22:38:08 30° WSW 22:38:08 30° WSW
Meteor 2-1 Rocket 4.2 22:41:06 64° E 22:41:06 64° E 22:46:30 10° NNE
Terra 3.3 22:43:38 25° NE 22:43:38 25° NE 22:46:21 10° N
ERS-1 Rocket 3.6 22:43:21 38° SSW 22:44:53 50° W 22:49:49 10° NNW
YAOGAN 6 3.9 22:45:19 38° W 22:45:19 38° W 22:48:36 10° NNW
Cosmos 1725 Rocket 3.9 22:43:44 42° S 22:46:01 89° WSW 22:52:16 10° N
Cosmos 2221 4.2 22:58:03 26° NNE 22:58:03 26° NNE 23:00:02 10° NNE
H-2A R/B 3.7 23:00:43 25° N 23:00:43 25° N 23:02:38 10° N
Tsikada Rocket 4.2 22:54:36 10° NNW 23:00:44 65° W 23:02:20 48° SSW
SL-08 RB Rocket 4.4 23:05:11 54° NNW 23:05:11 54° NNW 23:08:49 10° NNW
Cosmos 1626 4.4 23:07:23 10° NNW 23:08:56 23° NNW 23:08:56 23° NNW
Cosmos 2369 Rocket 3.7 23:16:36 26° NE 23:16:36 26° NE 23:18:59 10° NNE
Cosmos 2346 Rocket 4.4 23:08:50 10° N 23:15:04 80° W 23:15:11 80° WSW
SPOT 1/Viking Rocket 4.0 23:17:42 61° NW 23:17:42 61° NW 23:22:12 10° NNW
Nimbus 7 Rocket 4.5 23:18:47 10° NNE 23:24:14 72° NNW 23:24:14 72° NNW
Cosmos 2227 Rocket 4.4 23:22:09 10° N 23:25:16 15° NE 23:25:26 15° NE
Cosmos 1943 Rocket 4.3 23:49:23 17° NNE 23:49:23 17° NNE 23:50:36 10° NNE
USA 215 3.5 23:39:53 10° NE 23:46:20 63° NNW 23:52:45 10° WSW
ATLAS 5 CENTAUR R/B 3.8 23:43:08 10° W 23:47:22 28° NNW 23:51:59 10° NNE
